KJ5JYX Weather Reports


time (UTC)temp
F
wind
direction
speed
knots
gust
knots
rain 1hr
in
rain 24hr
in
rain mn
in
humidity
%
barometer
mb
20260906233455 92 176 0.9 0.9 0.00 0.06 0.06 54 1012.3
20260906232953 92 178 0.0 0.9 0.00 0.06 0.06 53 1012.4
20260906232449 92 182 0.9 0.9 0.00 0.06 0.06 53 1012.4
20260906231943 92 165 0.0 0.0 0.00 0.06 0.06 53 1012.3
20260906231438 93 187 0.0 0.9 0.00 0.06 0.06 53 1012.4
20260906230933 93 215 0.9 1.7 0.00 0.06 0.06 52 1012.3
20260906230433 93 188 0.9 0.9 0.00 0.06 0.06 52 1012.5
20260906225932 93 194 0.9 0.9 0.00 0.06 0.06 53 1012.5
20260906225426 93 198 1.7 1.7 0.00 0.06 0.06 52 1012.4
20260906224923 93 166 0.0 0.9 0.00 0.06 0.06 52 1012.7
20260906224419 93 167 0.9 1.7 0.00 0.06 0.06 51 1012.6
20260906223915 93 172 0.9 0.9 0.00 0.06 0.06 52 1012.8
20260906223411 93 160 0.0 0.9 0.00 0.06 0.06 52 1012.6
20260906222909 93 178 0.9 0.9 0.00 0.06 0.06 53 1012.7
20260906222408 93 177 0.0 0.9 0.00 0.06 0.06 53 1013.0
20260906221905 93 219 0.9 0.9 0.00 0.06 0.06 52 1013.0
20260906221405 94 176 0.9 0.9 0.00 0.06 0.06 50 1013.2
20260906220901 95 210 1.7 1.7 0.00 0.06 0.06 51 1013.2
20260906220356 95 204 0.9 1.7 0.00 0.06 0.06 51 1013.3
20260906215854 95 171 0.9 0.9 0.00 0.06 0.06 51 1013.2
20260906215350 96 227 2.6 5.2 0.00 0.06 0.06 50 1013.1
20260906214848 96 165 0.9 0.9 0.00 0.06 0.06 51 1013.2
20260906214348 95 181 0.9 0.9 0.00 0.06 0.06 54 1013.3
20260906213847 94 191 0.9 0.9 0.00 0.06 0.06 52 1013.3
20260906213341 96 175 0.9 1.7 0.00 0.06 0.06 51 1013.5
20260906212839 97 183 1.7 1.7 0.00 0.06 0.06 52 1013.4
20260906212334 97 187 0.9 1.7 0.00 0.06 0.06 49 1013.5
20260906211834 97 230 0.9 1.7 0.00 0.06 0.06 50 1013.4
20260906211329 96 187 0.0 0.0 0.00 0.06 0.06 49 1013.5
20260906210824 95 186 0.0 0.0 0.00 0.06 0.06 51 1013.5
20260906210318 93 183 0.0 0.0 0.00 0.06 0.06 53 1013.6
20260906205813 93 174 0.0 0.0 0.00 0.06 0.06 53 1013.7
20260906205310 92 163 0.0 0.0 0.00 0.06 0.06 55 1013.7
20260906204805 92 144 0.0 0.9 0.00 0.06 0.06 54 1013.7
20260906204304 92 222 0.9 0.9 0.00 0.06 0.06 55 1013.7
20260906203803 92 169 0.9 0.9 0.00 0.06 0.06 56 1013.8
20260906203300 92 167 0.0 0.9 0.00 0.06 0.06 54 1013.8
20260906202756 93 167 0.9 0.9 0.00 0.06 0.06 52 1014.0
20260906202256 93 195 0.9 0.9 0.00 0.06 0.06 52 1014.0
20260906201750 94 168 0.9 0.9 0.00 0.06 0.06 50 1014.2
20260906201244 94 177 0.9 0.9 0.00 0.06 0.06 49 1014.2
20260906200740 94 168 1.7 1.7 0.00 0.06 0.06 50 1014.2
20260906200236 94 186 0.9 0.9 0.00 0.06 0.06 50 1014.3
20260906195732 94 74 0.9 0.9 0.00 0.06 0.06 50 1014.4
20260906195228 95 191 0.0 0.0 0.00 0.06 0.06 47 1014.3
20260906194724 96 190 0.0 0.0 0.00 0.06 0.06 47 1014.5
20260906194219 95 199 0.9 1.7 0.00 0.06 0.06 48 1014.4
20260906193714 96 173 0.0 0.0 0.00 0.06 0.06 48 1014.6
20260906193214 95 196 0.9 0.9 0.00 0.06 0.06 49 1014.6
20260906192710 93 202 0.9 0.9 0.00 0.06 0.06 53 1014.6
20260906192204 95 161 0.0 0.0 0.00 0.06 0.06 47 1014.6
20260906191659 95 159 0.9 0.9 0.00 0.06 0.06 50 1014.6
20260906191158 93 177 0.0 0.0 0.00 0.06 0.06 54 1014.8
20260906190658 92 179 0.0 0.0 0.00 0.06 0.06 54 1014.8
20260906190153 93 182 0.0 0.0 0.00 0.06 0.06 54 1014.9
20260906185652 93 119 1.7 1.7 0.00 0.06 0.06 53 1015.0
20260906185151 93 178 0.9 0.9 0.00 0.06 0.06 53 1015.1
20260906184645 92 189 0.0 0.0 0.00 0.06 0.06 52 1015.1
20260906184141 94 191 0.9 0.9 0.00 0.06 0.06 52 1015.4
20260906183637 94 202 0.9 0.9 0.00 0.06 0.06 52 1015.2
20260906183133 93 210 0.9 0.9 0.00 0.06 0.06 54 1015.5
20260906182632 91 203 0.9 0.9 0.00 0.06 0.06 56 1015.6
20260906182129 91 177 0.0 0.9 0.00 0.06 0.06 56 1015.7
20260906181624 90 195 1.7 2.6 0.00 0.06 0.06 57 1015.7
20260906181120 90 213 0.9 1.7 0.00 0.06 0.06 60 1015.8
20260906180615 89 225 0.9 0.9 0.00 0.06 0.06 60 1015.8
20260906180115 87 186 0.0 0.0 0.00 0.06 0.06 63 1016.0
20260906175613 86 157 0.0 0.0 0.00 0.06 0.06 66 1016.3
20260906175108 86 172 0.0 0.0 0.00 0.06 0.06 67 1016.1
20260906174606 85 166 0.0 0.0 0.00 0.06 0.06 72 1016.3
20260906174101 84 165 0.0 0.9 0.00 0.06 0.06 72 1016.4
20260906173556 84 161 0.0 0.0 0.00 0.06 0.06 74 1016.5
20260906173052 84 138 0.9 0.9 0.00 0.06 0.06 72 1016.8
20260906172547 84 163 0.0 0.0 0.00 0.06 0.06 76 1016.8
20260906172042 83 168 0.0 0.9 0.00 0.06 0.06 77 1016.7
20260906171541 83 146 0.9 0.9 0.00 0.06 0.06 75 1016.9
20260906171037 83 161 0.9 0.9 0.00 0.06 0.06 77 1017.0
20260906170533 83 168 0.9 0.9 0.00 0.06 0.06 78 1017.0
20260906170032 82 157 0.0 0.0 0.00 0.06 0.06 80 1017.0
20260906165529 81 159 0.0 0.0 0.00 0.06 0.06 82 1016.8
20260906165024 80 159 0.0 0.0 0.00 0.06 0.06 85 1017.0
20260906164523 80 163 0.0 0.0 0.00 0.06 0.06 88 1016.9
20260906164020 78 155 0.0 0.0 0.00 0.06 0.06 89 1016.9
20260906163520 78 178 0.0 0.0 0.00 0.06 0.06 91 1017.1
20260906163015 78 178 0.0 0.0 0.00 0.06 0.06 92 1017.0
20260906162512 78 178 0.0 0.0 0.00 0.06 0.06 92 1017.0
20260906162007 77 178 0.0 0.0 0.00 0.06 0.06 93 1017.0
20260906161502 77 166 0.0 0.0 0.00 0.06 0.06 93 1016.9
20260906161001 77 179 0.0 0.0 0.00 0.06 0.06 94 1017.0
20260906160500 77 179 0.0 0.0 0.00 0.06 0.06 94 1017.1
20260906155958 77 180 0.0 0.9 0.00 0.06 0.06 94 1017.1
20260906155457 76 157 0.0 0.0 0.00 0.06 0.06 94 1017.0
20260906154953 75 166 0.0 0.0 0.00 0.06 0.06 94 1016.9
20260906154449 76 161 0.0 0.0 0.00 0.06 0.06 94 1016.9
20260906153946 75 161 0.0 0.0 0.00 0.06 0.06 94 1017.0
20260906153446 75 159 0.0 0.0 0.00 0.06 0.06 94 1016.8
20260906152941 75 162 0.0 0.0 0.00 0.06 0.06 95 1016.8
20260906152441 75 163 0.0 0.0 0.05 0.06 0.06 94 1016.7
20260906151940 75 184 0.0 0.0 0.12 0.06 0.06 94 1016.4
20260906151436 75 180 0.0 0.0 0.07 0.05 0.05 93 1016.2
20260906150932 76 180 0.0 0.0 0.00 0.04 0.04 92 1016.2
20260906150427 75 180 0.0 0.0 0.12 0.04 0.04 91 1016.4
20260906145927 76 180 0.0 0.0 0.12 0.04 0.04 92 1016.4
20260906145426 76 180 0.0 0.0 0.05 0.02 0.02 93 1016.2
20260906144921 76 180 0.0 0.0 0.05 0.02 0.02 93 1016.4
20260906144421 76 172 0.0 0.0 0.00 0.01 0.01 93 1016.3
20260906143916 76 173 0.0 0.0 0.07 0.01 0.01 92 1016.1
20260906143412 76 178 0.0 0.0 0.07 0.01 0.01 91 1016.0
20260906142908 0 0.0 0.0 0.00 0.00 0.00 1016.1
20260906142407 80 162 0.9 0.9 0.00 0.00 0.00 80 1016.1
20260906141902 80 162 0.9 0.9 0.00 0.00 0.00 80 1016.0
20260906141401 80 148 0.0 0.9 0.00 0.00 0.00 78 1015.9
20260906140856 79 153 0.0 0.9 0.00 0.00 0.00 78 1015.9
20260906140351 79 159 0.0 0.0 0.00 0.00 0.00 79 1016.0
20260906135848 79 130 0.9 0.9 0.00 0.00 0.00 80 1015.8
20260906135343 79 155 0.0 0.0 0.00 0.00 0.00 81 1015.7
20260906134838 78 155 0.0 0.0 0.00 0.00 0.00 81 1015.6
20260906134333 78 165 0.0 0.0 0.00 0.00 0.00 82 1015.8
20260906133829 78 165 0.0 0.0 0.00 0.00 0.00 82 1015.6
20260906133324 78 165 0.0 0.0 0.00 0.00 0.00 83 1015.4
20260906132820 78 165 0.0 0.0 0.00 0.00 0.00 83 1015.4
20260906132315 78 165 0.0 0.0 0.00 0.00 0.00 83 1015.3
20260906131811 78 165 0.0 0.0 0.00 0.00 0.00 82 1015.1
20260906131305 77 165 0.0 0.0 0.00 0.00 0.00 83 1015.2
20260906130801 77 165 0.0 0.0 0.00 0.00 0.00 83 1015.2
20260906130256 77 165 0.0 0.0 0.00 0.00 0.00 83 1015.1
20260906125754 77 165 0.0 0.0 0.00 0.00 0.00 83 1015.2
20260906125252 76 165 0.0 0.0 0.00 0.00 0.00 84 1014.9
20260906124752 76 165 0.0 0.0 0.00 0.00 0.00 84 1015.0
20260906124249 76 165 0.0 0.0 0.00 0.00 0.00 84 1014.9
20260906123747 76 165 0.0 0.0 0.00 0.00 0.00 84 1014.7
20260906123242 76 165 0.0 0.0 0.00 0.00 0.00 84 1014.6
20260906122742 76 165 0.0 0.0 0.00 0.00 0.00 84 1014.9
20260906122237 76 165 0.0 0.0 0.00 0.00 0.00 84 1014.7
20260906121734 76 165 0.0 0.0 0.00 0.00 0.00 84 1014.7
20260906121230 77 166 0.0 0.0 0.00 0.00 0.00 84 1014.6
20260906120725 77 166 0.0 0.0 0.00 0.00 0.00 84 1014.3
20260906120222 77 166 0.0 0.0 0.00 0.00 0.00 84 1014.4
20260906115717 77 166 0.0 0.0 0.00 0.00 0.00 83 1014.1
20260906115212 77 166 0.0 0.0 0.00 0.00 0.00 83 1014.2
20260906114711 77 166 0.0 0.0 0.00 0.00 0.00 82 1014.3
20260906114206 77 166 0.0 0.0 0.00 0.00 0.00 83 1014.2
20260906113702 77 166 0.0 0.0 0.00 0.00 0.00 83 1014.2
20260906113201 77 166 0.0 0.0 0.00 0.00 0.00 83 1014.1
20260906112700 77 166 0.0 0.0 0.00 0.00 0.00 83 1014.0
20260906112158 76 165 0.0 0.0 0.00 0.00 0.00 83 1013.8
20260906111657 76 166 0.0 0.0 0.00 0.00 0.00 83 1014.0
20260906111151 76 166 0.0 0.0 0.00 0.00 0.00 84 1013.8
20260906110647 76 166 0.0 0.0 0.00 0.00 0.00 85 1013.6
20260906110142 76 165 0.0 0.0 0.00 0.00 0.00 85 1013.8
20260906105636 77 165 0.0 0.9 0.00 0.00 0.00 85 1013.7
20260906105132 76 165 0.0 0.0 0.00 0.00 0.00 85 1013.7
20260906104632 76 166 0.0 0.0 0.00 0.00 0.00 85 1013.8
20260906104131 77 166 0.0 0.0 0.00 0.00 0.00 85 1013.8
20260906103629 77 166 0.0 0.0 0.00 0.00 0.00 85 1013.8
20260906103125 77 166 0.0 0.0 0.00 0.00 0.00 84 1013.7
20260906102620 77 166 0.0 0.0 0.00 0.00 0.00 84 1013.7
20260906102114 77 166 0.0 0.0 0.00 0.00 0.00 84 1013.7
20260906101609 77 166 0.0 0.0 0.00 0.00 0.00 83 1013.6
20260906101108 77 166 0.0 0.0 0.00 0.00 0.00 83 1013.8
20260906100604 77 166 0.0 0.0 0.00 0.00 0.00 83 1013.7
20260906100059 77 166 0.0 0.0 0.00 0.00 0.00 83 1013.8
20260906095559 77 166 0.0 0.0 0.00 0.00 0.00 83 1013.9
20260906095054 78 166 0.0 0.0 0.00 0.00 0.00 82 1013.7
20260906094553 78 166 0.0 0.0 0.00 0.00 0.00 82 1013.8
20260906094049 78 166 0.0 0.0 0.00 0.00 0.00 82 1013.6
20260906093545 79 166 0.0 0.0 0.00 0.00 0.00 80 1013.7
20260906093040 79 166 0.0 0.0 0.00 0.00 0.00 80 1013.8
20260906092540 79 166 0.0 0.0 0.00 0.00 0.00 80 1013.7
20260906092035 79 165 0.0 0.0 0.00 0.00 0.00 80 1013.6
20260906091531 79 166 0.0 0.0 0.00 0.00 0.00 80 1013.7
20260906091028 80 180 0.0 0.0 0.00 0.00 0.00 79 1013.5
20260906090527 80 180 0.0 0.0 0.00 0.00 0.00 78 1013.5
20260906090023 80 180 0.0 0.0 0.00 0.00 0.00 78 1013.6
20260906085521 80 180 0.0 0.0 0.00 0.00 0.00 77 1013.6
20260906085022 81 181 0.0 0.0 0.00 0.00 0.00 77 1013.5
20260906084521 81 181 0.0 0.0 0.00 0.00 0.00 77 1013.7
20260906084020 81 179 0.0 0.0 0.00 0.00 0.00 76 1013.7
20260906083516 81 179 0.0 0.0 0.00 0.00 0.00 76 1013.3
20260906083015 81 179 0.0 0.0 0.00 0.00 0.00 76 1013.5
20260906082510 82 165 0.0 0.0 0.00 0.00 0.00 76 1013.5
20260906082006 81 166 0.0 0.0 0.00 0.00 0.00 76 1013.6
20260906081502 81 176 0.0 0.0 0.00 0.00 0.00 76 1013.7
20260906080957 82 177 0.0 0.0 0.00 0.00 0.00 76 1013.5
20260906080455 82 178 0.0 0.0 0.00 0.00 0.00 76 1013.7
20260906075955 82 171 0.0 0.0 0.00 0.00 0.00 75 1013.7
20260906075450 82 171 0.0 0.0 0.00 0.00 0.00 75 1013.7
20260906074945 82 169 0.0 0.0 0.00 0.00 0.00 75 1014.0
20260906074444 82 169 0.0 0.0 0.00 0.00 0.00 75 1014.0
20260906073943 82 174 0.0 0.0 0.00 0.00 0.00 75 1014.0
20260906073438 83 179 0.0 0.0 0.00 0.00 0.00 74 1014.2
20260906072935 83 220 0.0 0.0 0.00 0.00 0.00 74 1014.1
20260906072429 83 177 0.0 0.0 0.00 0.00 0.00 73 1014.1
20260906071925 83 177 0.0 0.0 0.00 0.00 0.00 73 1014.1
20260906071421 83 167 0.0 0.0 0.00 0.00 0.00 73 1014.3
20260906070917 83 177 0.9 0.9 0.00 0.00 0.00 72 1014.2
20260906070413 83 171 0.0 0.0 0.00 0.00 0.00 72 1014.2
20260906065908 83 167 0.0 0.0 0.00 0.00 0.00 72 1014.2
20260906065402 83 178 0.0 0.0 0.00 0.00 0.00 72 1014.2
20260906064858 84 187 0.0 0.9 0.00 0.00 0.00 71 1014.2
20260906064355 84 170 0.0 0.0 0.00 0.00 0.00 71 1014.3
20260906063854 84 164 0.0 0.9 0.00 0.00 0.00 71 1014.4
20260906063349 84 177 0.0 0.0 0.00 0.00 0.00 71 1014.5
20260906062845 84 174 0.0 0.0 0.00 0.00 0.00 70 1014.3
20260906062344 84 176 0.0 0.0 0.00 0.00 0.00 70 1014.1
20260906061839 84 173 0.9 1.7 0.00 0.00 0.00 71 1014.1
20260906061336 84 175 0.0 0.0 0.00 0.00 0.00 71 1014.3
20260906060830 84 169 0.0 0.0 0.00 0.00 0.00 70 1014.4
20260906060328 84 173 0.9 0.9 0.00 0.00 0.00 70 1014.5
20260906055824 84 171 0.0 0.0 0.00 0.00 0.00 70 1014.5
20260906055319 84 161 1.7 1.7 0.00 0.00 0.00 70 1014.6
20260906054814 84 159 0.0 0.0 0.00 0.00 0.00 69 1014.3
20260906054309 84 170 0.0 0.9 0.00 0.00 0.00 69 1014.5
20260906053806 84 168 0.0 0.0 0.00 0.00 0.00 69 1014.4
20260906053301 84 159 0.9 0.9 0.00 0.00 0.00 69 1014.4
20260906052756 84 165 0.0 0.0 0.00 0.00 0.00 69 1014.6
20260906052252 84 166 0.0 0.9 0.00 0.00 0.00 69 1014.5
20260906051749 84 164 0.0 0.0 0.00 0.00 0.00 69 1014.6
20260906051248 84 169 0.0 0.0 0.00 0.00 0.00 68 1014.4
20260906050744 84 168 0.0 0.0 0.00 0.00 0.00 68 1014.3
20260906050239 84 173 0.0 0.0 0.00 0.00 0.00 68 1014.6
20260906045738 84 178 0.0 0.0 0.00 0.00 0.00 67 1014.5
20260906045233 84 159 0.0 0.9 0.00 0.00 0.00 67 1014.6
20260906044728 84 138 0.0 0.0 0.00 0.00 0.00 67 1014.6
20260906044218 85 163 0.0 0.0 0.00 0.00 0.00 67 1014.6
20260906043715 85 163 0.0 0.0 0.00 0.00 0.00 66 1014.6
20260906043210 85 171 0.0 0.0 0.00 0.00 0.00 66 1014.5
20260906042709 85 166 0.0 0.0 0.00 0.00 0.00 65 1014.5
20260906042208 86 189 0.9 1.7 0.00 0.00 0.00 65 1014.5
20260906041705 86 171 0.9 0.9 0.00 0.00 0.00 65 1014.8
20260906041205 86 163 0.0 0.0 0.00 0.00 0.00 65 1014.6
20260906040700 86 166 0.0 0.0 0.00 0.00 0.00 64 1014.6
20260906040155 86 169 0.0 0.9 0.00 0.00 0.00 64 1014.6
20260906035650 86 163 0.0 0.0 0.00 0.00 0.00 63 1014.4
20260906035146 86 183 0.0 0.9 0.00 0.00 0.00 63 1014.4
20260906034642 86 167 0.0 0.9 0.00 0.00 0.00 63 1014.3
20260906034141 87 159 0.9 0.9 0.00 0.00 0.00 63 1014.2
20260906033637 87 166 0.9 0.9 0.00 0.00 0.00 62 1014.3
20260906033131 87 168 0.9 0.9 0.00 0.00 0.00 62 1014.2
20260906032629 87 169 0.9 0.9 0.00 0.00 0.00 61 1014.1
20260906032128 87 164 0.0 0.9 0.00 0.00 0.00 60 1014.0
20260906031624 87 161 0.9 0.9 0.00 0.00 0.00 59 1014.0
20260906031119 87 172 0.0 0.9 0.00 0.00 0.00 59 1013.9
20260906030618 87 148 0.9 0.9 0.00 0.00 0.00 58 1013.8
20260906030114 87 174 0.9 1.7 0.00 0.00 0.00 58 1013.7
20260906025613 87 168 0.9 0.9 0.00 0.00 0.00 58 1013.5
20260906025111 87 157 0.0 0.9 0.00 0.00 0.00 57 1013.4
20260906024607 87 159 0.9 0.9 0.00 0.00 0.00 57 1013.3
20260906024102 87 165 1.7 1.7 0.00 0.00 0.00 55 1013.1
20260906023557 87 169 0.9 0.9 0.00 0.00 0.00 55 1013.0
20260906023052 87 162 0.9 0.9 0.00 0.00 0.00 54 1012.7
20260906022547 87 125 1.7 1.7 0.00 0.00 0.00 52 1012.7
20260906022043 87 145 0.9 0.9 0.00 0.00 0.00 53 1012.7
20260906021538 86 152 0.9 0.9 0.00 0.00 0.00 55 1012.5
20260906021037 86 126 0.0 0.9 0.00 0.00 0.00 56 1012.5
20260906020537 86 160 0.0 0.0 0.00 0.00 0.00 56 1012.2
20260906020036 86 160 0.0 0.0 0.00 0.00 0.00 56 1012.4
20260906015535 86 160 0.0 0.0 0.00 0.00 0.00 55 1012.2
20260906015035 87 160 0.0 0.0 0.00 0.00 0.00 55 1012.3
20260906014530 87 160 0.0 0.0 0.00 0.00 0.00 53 1012.3
20260906014026 88 159 0.0 0.0 0.00 0.00 0.00 52 1012.1
20260906013521 88 160 0.0 0.0 0.00 0.00 0.00 53 1012.1
20260906013017 88 159 0.0 0.0 0.00 0.00 0.00 52 1012.0
20260906012512 88 160 0.0 0.0 0.00 0.00 0.00 51 1012.0
20260906012011 89 160 0.0 0.0 0.00 0.00 0.00 51 1012.1
20260906011508 89 160 0.0 0.0 0.00 0.00 0.00 50 1012.1
20260906011008 90 160 0.0 0.0 0.00 0.00 0.00 49 1012.0
20260906010503 90 160 0.0 0.0 0.00 0.00 0.00 48 1012.0
20260906005959 91 160 0.0 0.0 0.00 0.00 0.00 47 1011.8
20260906005458 91 160 0.0 0.0 0.00 0.00 0.00 47 1012.0
20260906004957 92 160 0.0 0.0 0.00 0.00 0.00 46 1011.9
20260906004457 92 163 0.0 0.0 0.00 0.00 0.00 45 1012.0
20260906003952 93 163 0.0 0.0 0.00 0.00 0.00 45 1011.9
20260906003447 93 163 0.0 0.9 0.00 0.00 0.00 44 1011.8
20260906002937 93 155 0.0 0.9 0.00 0.00 0.00 44 1011.7
20260906002436 94 167 0.9 0.9 0.00 0.00 0.00 44 1011.7
20260906001932 94 166 0.0 0.0 0.00 0.00 0.00 44 1011.9
20260906001427 94 168 0.0 0.0 0.00 0.00 0.00 43 1011.8
20260906000917 95 183 1.7 1.7 0.00 0.00 0.00 43 1011.6
20260906000413 95 156 0.9 1.7 0.00 0.00 0.00 42 1011.6
20260905235907 95 169 0.9 0.9 0.00 0.00 0.00 43 1011.7
20260905235401 95 156 0.0 0.9 0.00 0.00 0.00 42 1011.7
20260905234856 95 199 0.9 0.9 0.00 0.00 0.00 42 1011.7
20260905234351 95 120 1.7 2.6 0.00 0.00 0.00 42 1011.7
20260905233847 96 173 1.7 2.6 0.00 0.00 0.00 42 1011.9